TimeSAST,TemperatureF,Dew PointF,Humidity,Sea Level PressureIn,VisibilityMPH,Wind Direction,Wind SpeedMPH,Gust SpeedMPH,PrecipitationIn,Events,Conditions,WindDirDegrees,DateUTC
12:00 AM,80.6,42.8,26,29.83,-9999.0,Variable,5.8,-,N/A,,Clear,0,2012-09-16 22:00:00
1:00 AM,86.0,39.2,19,29.83,-9999.0,Variable,1.2,-,N/A,,Clear,0,2012-09-16 23:00:00
2:00 AM,80,43,17,29.80,19,West,9.2,,,,,260,2012-09-17 00:00:00
2:00 AM,80.6,41.0,24,29.80,-9999.0,West,9.2,-,N/A,,Clear,260,2012-09-17 00:00:00
3:00 AM,86.0,42.8,22,29.80,-9999.0,Variable,6.9,18.4,N/A,,Clear,0,2012-09-17 01:00:00
4:00 AM,86.0,42.8,22,29.77,-9999.0,North,19.6,32.2,N/A,,Clear,350,2012-09-17 02:00:00
5:00 AM,68,50,43,29.84,12,SSW,13.8,,,,,210,2012-09-17 03:00:00
5:00 AM,68.0,50.0,52,29.83,-9999.0,SSW,13.8,-,N/A,,Clear,210,2012-09-17 03:00:00
6:00 AM,64.4,48.2,56,29.89,-9999.0,SW,15.0,-,N/A,,Clear,230,2012-09-17 04:00:00
7:00 AM,62.6,48.2,59,29.92,-9999.0,WSW,11.5,-,N/A,,Clear,250,2012-09-17 05:00:00
8:00 AM,62,47,49,29.96,12,WNW,10.4,,,,Clear,290,2012-09-17 06:00:00
8:00 AM,62.6,48.2,59,29.95,-9999.0,WNW,11.5,-,N/A,,Clear,290,2012-09-17 06:00:00
9:00 AM,64.4,46.4,52,29.98,-9999.0,WNW,10.4,-,N/A,,Clear,300,2012-09-17 07:00:00
10:00 AM,68.0,44.6,43,29.98,-9999.0,West,10.4,-,N/A,,Clear,260,2012-09-17 08:00:00
11:00 AM,67,48,40,29.99,19,WSW,5.8,,,,Clear,240,2012-09-17 09:00:00
11:00 AM,68.0,48.2,49,29.98,-9999.0,WSW,5.8,-,N/A,,Clear,250,2012-09-17 09:00:00
12:00 PM,66.2,50.0,56,29.98,-9999.0,SSW,11.5,-,N/A,,Clear,200,2012-09-17 10:00:00
1:00 PM,62.6,55.4,77,29.98,-9999.0,SSW,15.0,-,N/A,,Clear,200,2012-09-17 11:00:00
2:00 PM,61,54,73,29.98,12,SW,11.5,,,,Partly Cloudy,230,2012-09-17 12:00:00
2:00 PM,60.8,53.6,77,29.98,6.2,SW,12.7,-,N/A,,Scattered Clouds,230,2012-09-17 12:00:00
3:00 PM,60.8,53.6,77,29.98,6.2,SSW,10.4,-,N/A,,Mostly Cloudy,210,2012-09-17 13:00:00
4:00 PM,60.8,53.6,77,29.98,6.2,SSW,10.4,-,N/A,,Mostly Cloudy,200,2012-09-17 14:00:00
5:00 PM,59,53,76,29.99,12,SSW,10.4,,,,Mostly Cloudy,200,2012-09-17 15:00:00
5:00 PM,59.0,53.6,82,29.98,6.2,SSW,10.4,-,N/A,,Mostly Cloudy,200,2012-09-17 15:00:00
6:00 PM,59.0,53.6,82,29.98,6.2,SW,6.9,-,N/A,,Mostly Cloudy,220,2012-09-17 16:00:00
7:00 PM,59.0,53.6,82,29.98,6.2,South,2.3,-,N/A,,Overcast,190,2012-09-17 17:00:00
8:00 PM,58,54,80,29.99,12,,1.2,,,,Mostly Cloudy,,2012-09-17 18:00:00
8:00 PM,59.0,53.6,82,29.98,6.2,Calm,Calm,-,N/A,,Mostly Cloudy,0,2012-09-17 18:00:00
9:00 PM,59.0,53.6,82,29.98,6.2,SW,2.3,-,N/A,,Overcast,230,2012-09-17 19:00:00
10:00 PM,57.2,53.6,88,29.95,6.2,Calm,Calm,-,N/A,,Mostly Cloudy,0,2012-09-17 20:00:00
11:00 PM,57.2,53.6,88,29.92,6.2,Calm,Calm,-,N/A,,Mostly Cloudy,0,2012-09-17 21:00:00